Regional Weather Roundup
Issued by NWS

Home | Current Version | Previous Version | Text Only | Print | Product List | Glossary On
Versions: 1 2 3 4 5 6 7 8 9 10 11 12 13 14 15 16 17 18 19 20 21 22 23 24 25 26 27 28 29 30 31 32 33 34 35 36 37 38 39 40 41 42 43 44 45 46 47 48 49 50
000
ASUS42 KKEY 302210
RWRKEY

FLORIDA REGIONAL WEATHER ROUNDUP FOR THE FLORIDA KEYS
NATIONAL WEATHER SERVICE KEY WEST FLORIDA
600 PM EDT SUN APR 30 2017

...SOUTH FLORIDA AND THE KEYS...

CITY           SKY/WX    TMP DP  RH WIND       PRES   REMARKS
FORT MYERS     CLOUDY    91  66  43 E13G23    29.99F HX  93
SW REGIONAL AP CLOUDY    89  65  44 SE16G22   30.00F HX  91
NAPLES         PTSUNNY   88  65  46 E13       30.00S HX  90
MIAMI          PTSUNNY   83  70  64 E15       30.06F
WEST KENDALL   LGT RAIN  82  71  69 E13       30.05F
HOMESTEAD      PTSUNNY   79  77  94 E12G17    30.05S
MARATHON       MOSUNNY   84  73  69 E12G24    30.01F HX  90
BOCA CHICA NAS MOSUNNY   82  73  74 E23       29.99F
KEY WEST INTL  MOSUNNY   82  74  76 E21G29    29.99F

...INTERNATIONAL WEATHER...

CITY           SKY/WX    TMP DP  RH WIND       PRES   REMARKS
NASSAU BAHAMAS PTSUNNY   84  61  45 E14       30.09S
CANCUN MEXICO  PTSUNNY   84  77  79 SE18      29.86S HX  94
COZUMEL MEXICO MOSUNNY   86  77  74 SE16      29.84S HX  97

ADJACENT COASTAL WATERS...

STATION/POSITION TIME  SKY/WX   TEMP    WIND        PRES    WAVE
                                AIR SEA DIR/SP/G            HT/PER
                 (UTC)          (F)     (DEG/KT/KT) (MB)    (FT/S)
PULASKI SHOAL LI 2200            80     110/ 23/ 26 1014.9F
SAND KEY         2150            79     110/ 21/ 24 1015.8F
LONG KEY         2100            80 82  100/ 18/ 20 1017.1F
MOLASSES REEF    2100            80 80  120/ 13/ 14 1017.8F
FOWEY ROCKS      2100            79 80   90/ 20/ 22 1018.6F
Buoy 42097       2130                                 N/A     6/ 6

$$



USA.gov is the U.S. government's official web portal to all federal, state and local government web resources and services.